Location: ????????
(37.9452°N, 23.1472°E)
Time: 19:55:22
(UTC+00:00)

SL-16 R/B - Visible Passes

Search period start: 22 July 2024 00:00
Search period end: 01 August 2024 00:00
Orbit: 842 x 845 km, 71.0° (Epoch: 21 July)

Date Brightness Start Highest point End Pass type
(mag) Time Alt. Az. Time Alt. Az. Time Alt. Az.
22 Jul 2.6 02:00:27 11° S 02:05:49 62° ESE 02:11:25 10° NNE visible
23 Jul 2.6 01:46:46 15° S 01:51:18 59° ESE 01:56:53 10° NNE visible
24 Jul 2.7 01:33:02 21° S 01:36:48 56° ESE 01:42:20 10° NNE visible
25 Jul 2.7 01:19:15 26° S 01:22:16 54° ESE 01:27:47 10° NNE visible
26 Jul 2.8 01:05:25 32° SSE 01:07:45 51° ESE 01:13:14 10° NNE visible
26 Jul 3.7 02:47:47 10° WSW 02:52:08 22° NW 02:56:29 10° N visible
27 Jul 2.8 00:51:33 37° SSE 00:53:14 49° ESE 00:58:40 10° NNE visible
27 Jul 3.6 02:33:25 11° WSW 02:37:34 23° NW 02:42:01 10° N visible
28 Jul 2.8 00:37:37 41° SE 00:38:43 47° ESE 00:44:07 10° NE visible
28 Jul 3.6 02:19:29 14° WSW 02:23:00 24° WNW 02:27:33 10° N visible
29 Jul 2.8 00:23:40 43° ESE 00:24:11 44° ESE 00:29:33 10° NE visible
29 Jul 3.5 02:05:31 17° W 02:08:27 25° WNW 02:13:04 10° N visible
30 Jul 2.9 00:09:40 42° ESE 00:09:40 42° ESE 00:14:59 10° NE visible
30 Jul 3.5 01:51:31 20° W 01:53:53 26° WNW 01:58:35 10° N visible
30 Jul 3.1 23:55:38 40° E 23:55:38 40° E 00:00:25 10° NE visible
31 Jul 3.4 01:37:29 23° W 01:39:20 27° WNW 01:44:07 10° N visible
31 Jul 3.3 23:41:34 36° E 23:41:34 36° E 23:45:51 10° NE visible
